| time (UTC) | temp F | wind direction | speed knots | gust knots | rain 1hr in | rain 24hr in | rain mn in | humidity % | barometer mb |
| 20260507105734 | 31 | 329 | 0.0 | 0.0 | 0.00 | 0.00 | 0.00 | 90 | 1015.4 |
| 20260507105230 | 31 | 339 | 0.0 | 0.0 | 0.00 | 0.00 | 0.00 | 90 | 1015.6 |
| 20260507104727 | 31 | 339 | 0.0 | 0.9 | 0.00 | 0.00 | 0.00 | 90 | 1015.5 |
| 20260507104224 | 31 | 345 | 0.0 | 0.9 | 0.00 | 0.00 | 0.00 | 90 | 1015.4 |
| 20260507103720 | 31 | 343 | 0.0 | 0.0 | 0.00 | 0.00 | 0.00 | 90 | 1015.6 |
| 20260507103216 | 31 | 344 | 0.0 | 0.0 | 0.00 | 0.00 | 0.00 | 89 | 1015.6 |
| 20260507102713 | 32 | 342 | 0.0 | 0.0 | 0.00 | 0.00 | 0.00 | 89 | 1015.5 |
| 20260507102209 | 32 | 337 | 0.0 | 0.0 | 0.00 | 0.00 | 0.00 | 88 | 1015.7 |
| 20260507101705 | 32 | 332 | 0.0 | 0.0 | 0.00 | 0.00 | 0.00 | 87 | 1015.8 |
| 20260507101201 | 32 | 347 | 0.9 | 0.9 | 0.00 | 0.00 | 0.00 | 86 | 1015.7 |
| 20260507100658 | 32 | 332 | 0.9 | 0.9 | 0.00 | 0.00 | 0.00 | 86 | 1015.8 |
| 20260507100157 | 31 | 332 | 0.0 | 0.0 | 0.00 | 0.00 | 0.00 | 86 | 1015.7 |
| 20260507095654 | 32 | 333 | 0.0 | 0.0 | 0.00 | 0.00 | 0.00 | 86 | 1015.6 |
| 20260507095151 | 32 | 335 | 0.0 | 0.0 | 0.00 | 0.00 | 0.00 | 85 | 1015.7 |
| 20260507094647 | 32 | 27 | 0.9 | 0.9 | 0.00 | 0.00 | 0.00 | 84 | 1015.5 |
| 20260507094144 | 32 | 339 | 0.0 | 0.0 | 0.00 | 0.00 | 0.00 | 84 | 1015.9 |
| 20260507093641 | 32 | 338 | 0.0 | 0.0 | 0.00 | 0.00 | 0.00 | 84 | 1015.9 |
| 20260507093141 | 32 | 334 | 0.0 | 0.0 | 0.00 | 0.00 | 0.00 | 84 | 1015.9 |
| 20260507092636 | 32 | 334 | 0.0 | 0.0 | 0.00 | 0.00 | 0.00 | 83 | 1015.9 |
| 20260507092133 | 32 | 330 | 0.0 | 0.0 | 0.00 | 0.00 | 0.00 | 83 | 1015.9 |
| 20260507091629 | 32 | 337 | 0.0 | 0.0 | 0.00 | 0.00 | 0.00 | 83 | 1015.9 |
| 20260507091125 | 32 | 341 | 0.0 | 0.0 | 0.00 | 0.00 | 0.00 | 83 | 1016.0 |
| 20260507090621 | 32 | 341 | 0.0 | 0.0 | 0.00 | 0.00 | 0.00 | 83 | 1016.0 |
| 20260507090119 | 32 | 341 | 0.0 | 0.0 | 0.00 | 0.00 | 0.00 | 82 | 1015.9 |
| 20260507085616 | 33 | 349 | 0.0 | 0.9 | 0.00 | 0.00 | 0.00 | 81 | 1015.9 |
| 20260507085112 | 33 | 344 | 0.0 | 0.0 | 0.00 | 0.00 | 0.00 | 81 | 1016.0 |
| 20260507084609 | 33 | 341 | 0.0 | 0.0 | 0.00 | 0.00 | 0.00 | 81 | 1016.1 |
| 20260507084106 | 33 | 342 | 0.0 | 0.0 | 0.00 | 0.00 | 0.00 | 80 | 1016.3 |
| 20260507083603 | 33 | 342 | 0.0 | 0.0 | 0.00 | 0.00 | 0.00 | 80 | 1016.2 |
| 20260507083100 | 33 | 341 | 0.0 | 0.9 | 0.00 | 0.00 | 0.00 | 80 | 1016.3 |
| 20260507082555 | 33 | 338 | 0.0 | 0.0 | 0.00 | 0.00 | 0.00 | 80 | 1016.3 |
| 20260507082052 | 33 | 332 | 0.0 | 0.0 | 0.00 | 0.00 | 0.00 | 81 | 1016.4 |
| 20260507081548 | 33 | 329 | 0.0 | 0.0 | 0.00 | 0.00 | 0.00 | 80 | 1016.2 |
| 20260507081045 | 34 | 328 | 0.0 | 0.0 | 0.00 | 0.00 | 0.00 | 79 | 1016.4 |
| 20260507080541 | 34 | 337 | 0.0 | 0.0 | 0.00 | 0.00 | 0.00 | 77 | 1016.3 |
| 20260507080038 | 34 | 317 | 0.0 | 0.0 | 0.00 | 0.00 | 0.00 | 72 | 1016.5 |
| 20260507075533 | 35 | 319 | 0.0 | 0.0 | 0.00 | 0.00 | 0.00 | 73 | 1016.6 |
| 20260507075030 | 35 | 299 | 0.9 | 0.9 | 0.00 | 0.00 | 0.00 | 71 | 1016.5 |
| 20260507074526 | 35 | 296 | 0.9 | 0.9 | 0.00 | 0.00 | 0.00 | 72 | 1016.7 |
| 20260507074025 | 34 | 290 | 0.9 | 1.7 | 0.00 | 0.00 | 0.00 | 74 | 1016.7 |
| 20260507073521 | 34 | 342 | 0.0 | 0.0 | 0.00 | 0.00 | 0.00 | 83 | 1016.5 |
| 20260507073017 | 33 | 341 | 0.0 | 0.0 | 0.00 | 0.00 | 0.00 | 84 | 1016.7 |
| 20260507072515 | 34 | 341 | 0.0 | 0.0 | 0.00 | 0.00 | 0.00 | 83 | 1016.7 |
| 20260507072012 | 34 | 341 | 0.0 | 0.0 | 0.00 | 0.00 | 0.00 | 84 | 1017.0 |
| 20260507071509 | 34 | 342 | 0.0 | 0.0 | 0.00 | 0.00 | 0.00 | 84 | 1017.0 |
| 20260507071006 | 34 | 342 | 0.0 | 0.0 | 0.00 | 0.00 | 0.00 | 84 | 1016.8 |
| 20260507070503 | 34 | 342 | 0.0 | 0.0 | 0.00 | 0.00 | 0.00 | 85 | 1017.0 |
| 20260507070000 | 35 | 342 | 0.0 | 0.0 | 0.00 | 0.00 | 0.00 | 85 | 1017.1 |
| 20260507065456 | 34 | 342 | 0.0 | 0.9 | 0.00 | 0.00 | 0.00 | 86 | 1016.9 |
| 20260507064953 | 34 | 342 | 0.0 | 0.0 | 0.00 | 0.00 | 0.00 | 87 | 1016.9 |
| 20260507064452 | 35 | 342 | 0.0 | 0.0 | 0.00 | 0.00 | 0.00 | 87 | 1016.9 |
| 20260507063949 | 35 | 341 | 0.0 | 0.0 | 0.00 | 0.00 | 0.00 | 87 | 1017.1 |
| 20260507063446 | 35 | 341 | 0.0 | 0.0 | 0.00 | 0.00 | 0.00 | 87 | 1017.2 |
| 20260507062943 | 35 | 341 | 0.0 | 0.0 | 0.00 | 0.00 | 0.00 | 87 | 1017.1 |
| 20260507062440 | 35 | 341 | 0.0 | 0.0 | 0.00 | 0.00 | 0.00 | 86 | 1017.3 |
| 20260507061937 | 35 | 341 | 0.0 | 0.0 | 0.00 | 0.00 | 0.00 | 85 | 1017.2 |
| 20260507061435 | 36 | 340 | 0.0 | 0.9 | 0.00 | 0.00 | 0.00 | 84 | 1017.3 |
| 20260507060934 | 36 | 340 | 0.0 | 0.9 | 0.00 | 0.00 | 0.00 | 83 | 1017.3 |
| 20260507060430 | 36 | 340 | 0.0 | 0.0 | 0.00 | 0.00 | 0.00 | 83 | 1017.1 |
| 20260507055927 | 35 | 339 | 0.0 | 0.9 | 0.00 | 0.00 | 0.00 | 84 | 1017.3 |
| 20260507055422 | 35 | 340 | 0.0 | 0.0 | 0.00 | 0.00 | 0.00 | 84 | 1017.4 |
| 20260507054919 | 35 | 340 | 0.0 | 0.0 | 0.00 | 0.00 | 0.00 | 83 | 1017.4 |
| 20260507054415 | 36 | 340 | 0.0 | 0.0 | 0.00 | 0.00 | 0.00 | 82 | 1017.7 |
| 20260507053913 | 36 | 340 | 0.0 | 0.0 | 0.00 | 0.00 | 0.00 | 83 | 1017.5 |
| 20260507053410 | 36 | 339 | 0.0 | 0.0 | 0.00 | 0.00 | 0.00 | 83 | 1017.5 |
| 20260507052909 | 36 | 339 | 0.0 | 0.0 | 0.00 | 0.00 | 0.00 | 82 | 1017.6 |
| 20260507052406 | 36 | 339 | 0.0 | 0.0 | 0.00 | 0.00 | 0.00 | 82 | 1017.5 |
| 20260507051903 | 36 | 339 | 0.0 | 0.0 | 0.00 | 0.00 | 0.00 | 82 | 1017.5 |
| 20260507051400 | 37 | 340 | 0.0 | 0.0 | 0.00 | 0.00 | 0.00 | 81 | 1017.4 |
| 20260507050857 | 37 | 340 | 0.0 | 0.0 | 0.00 | 0.00 | 0.00 | 80 | 1017.3 |
| 20260507050354 | 37 | 340 | 0.0 | 0.9 | 0.00 | 0.00 | 0.00 | 80 | 1017.3 |
| 20260507045850 | 37 | 340 | 0.0 | 0.9 | 0.00 | 0.00 | 0.00 | 79 | 1017.4 |
| 20260507045347 | 37 | 342 | 0.9 | 0.9 | 0.00 | 0.00 | 0.00 | 80 | 1017.4 |
| 20260507044844 | 38 | 336 | 0.0 | 0.0 | 0.00 | 0.00 | 0.00 | 79 | 1017.3 |
| 20260507044341 | 38 | 337 | 0.0 | 0.9 | 0.00 | 0.00 | 0.00 | 79 | 1017.3 |
| 20260507043837 | 38 | 337 | 0.0 | 0.0 | 0.00 | 0.00 | 0.00 | 77 | 1017.2 |
| 20260507043334 | 38 | 334 | 0.0 | 0.9 | 0.00 | 0.00 | 0.00 | 75 | 1017.1 |
| 20260507042830 | 39 | 335 | 0.0 | 0.9 | 0.00 | 0.00 | 0.00 | 75 | 1017.1 |
| 20260507042325 | 39 | 334 | 0.0 | 0.0 | 0.00 | 0.00 | 0.00 | 74 | 1017.1 |
| 20260507041823 | 39 | 332 | 0.0 | 0.0 | 0.00 | 0.00 | 0.00 | 72 | 1017.2 |
| 20260507041319 | 40 | 333 | 0.0 | 0.0 | 0.00 | 0.00 | 0.00 | 70 | 1017.1 |
| 20260507040816 | 40 | 338 | 0.0 | 0.9 | 0.00 | 0.00 | 0.00 | 71 | 1017.3 |
| 20260507040312 | 39 | 337 | 0.0 | 0.0 | 0.00 | 0.00 | 0.00 | 73 | 1017.3 |
| 20260507035808 | 40 | 338 | 0.0 | 0.0 | 0.00 | 0.00 | 0.00 | 72 | 1017.4 |
| 20260507035306 | 40 | 340 | 0.0 | 0.0 | 0.00 | 0.00 | 0.00 | 71 | 1017.3 |
| 20260507034802 | 40 | 342 | 0.9 | 0.9 | 0.00 | 0.00 | 0.00 | 70 | 1017.4 |
| 20260507034258 | 40 | 341 | 0.9 | 0.9 | 0.00 | 0.00 | 0.00 | 68 | 1017.4 |
| 20260507033757 | 41 | 341 | 0.0 | 0.0 | 0.00 | 0.00 | 0.00 | 67 | 1017.6 |
| 20260507033254 | 41 | 341 | 0.0 | 0.0 | 0.00 | 0.00 | 0.00 | 66 | 1017.4 |
| 20260507032751 | 42 | 341 | 0.0 | 0.0 | 0.00 | 0.00 | 0.00 | 65 | 1017.6 |
| 20260507032247 | 42 | 342 | 0.0 | 0.0 | 0.00 | 0.00 | 0.00 | 64 | 1017.5 |
| 20260507031743 | 42 | 343 | 0.0 | 0.0 | 0.00 | 0.00 | 0.00 | 64 | 1017.6 |
| 20260507031240 | 42 | 344 | 0.9 | 0.9 | 0.00 | 0.00 | 0.00 | 63 | 1017.5 |
| 20260507030737 | 43 | 330 | 0.0 | 0.0 | 0.00 | 0.00 | 0.00 | 60 | 1017.5 |
| 20260507030235 | 43 | 344 | 0.9 | 0.9 | 0.00 | 0.00 | 0.00 | 58 | 1017.3 |
| 20260507025732 | 44 | 343 | 0.0 | 0.9 | 0.00 | 0.00 | 0.00 | 56 | 1017.5 |
| 20260507025229 | 44 | 336 | 0.0 | 0.9 | 0.00 | 0.00 | 0.00 | 55 | 1017.4 |
| 20260507024727 | 44 | 336 | 0.0 | 0.0 | 0.00 | 0.00 | 0.00 | 54 | 1017.5 |
| 20260507024224 | 44 | 332 | 0.0 | 0.0 | 0.00 | 0.00 | 0.00 | 53 | 1017.5 |
| 20260507023719 | 45 | 332 | 0.0 | 0.0 | 0.00 | 0.00 | 0.00 | 52 | 1017.4 |
| 20260507023216 | 45 | 332 | 0.0 | 0.9 | 0.00 | 0.00 | 0.00 | 50 | 1017.3 |
| 20260507022714 | 45 | 329 | 0.0 | 0.0 | 0.00 | 0.00 | 0.00 | 49 | 1017.3 |
| 20260507022209 | 46 | 337 | 0.0 | 0.9 | 0.00 | 0.00 | 0.00 | 48 | 1017.3 |
| 20260507021706 | 46 | 334 | 0.9 | 0.9 | 0.00 | 0.00 | 0.00 | 48 | 1017.2 |
| 20260507021201 | 46 | 336 | 0.9 | 0.9 | 0.00 | 0.00 | 0.00 | 48 | 1017.2 |
| 20260507020700 | 47 | 324 | 1.7 | 1.7 | 0.00 | 0.00 | 0.00 | 46 | 1017.2 |
| 20260507020156 | 47 | 330 | 0.9 | 1.7 | 0.00 | 0.00 | 0.00 | 45 | 1016.9 |
| 20260507015654 | 48 | 309 | 2.6 | 2.6 | 0.00 | 0.00 | 0.00 | 44 | 1017.0 |
| 20260507015151 | 48 | 311 | 1.7 | 1.7 | 0.00 | 0.00 | 0.00 | 44 | 1017.0 |
| 20260507014647 | 48 | 310 | 3.5 | 3.5 | 0.00 | 0.00 | 0.00 | 43 | 1016.9 |
| 20260507014143 | 48 | 296 | 3.5 | 3.5 | 0.00 | 0.00 | 0.00 | 43 | 1017.0 |
| 20260507013641 | 48 | 323 | 3.5 | 5.2 | 0.00 | 0.00 | 0.00 | 43 | 1016.9 |
| 20260507013138 | 48 | 309 | 2.6 | 2.6 | 0.00 | 0.00 | 0.00 | 43 | 1016.8 |
| 20260507012635 | 49 | 317 | 3.5 | 3.5 | 0.00 | 0.00 | 0.00 | 42 | 1016.9 |
| 20260507012130 | 49 | 300 | 3.5 | 3.5 | 0.00 | 0.00 | 0.00 | 42 | 1016.6 |
| 20260507011629 | 49 | 332 | 4.3 | 5.2 | 0.00 | 0.00 | 0.00 | 41 | 1016.7 |
| 20260507011125 | 49 | 315 | 5.2 | 6.1 | 0.00 | 0.00 | 0.00 | 41 | 1016.7 |
| 20260507010620 | 50 | 262 | 6.1 | 7.8 | 0.00 | 0.00 | 0.00 | 40 | 1016.9 |
| 20260507010116 | 50 | 309 | 2.6 | 2.6 | 0.00 | 0.00 | 0.00 | 39 | 1016.7 |
| 20260507005613 | 50 | 337 | 2.6 | 2.6 | 0.00 | 0.00 | 0.00 | 40 | 1016.7 |
| 20260507005109 | 50 | 319 | 4.3 | 6.1 | 0.00 | 0.00 | 0.00 | 39 | 1016.7 |
| 20260507004606 | 51 | 324 | 7.8 | 9.6 | 0.00 | 0.00 | 0.00 | 38 | 1016.8 |
| 20260507004104 | 51 | 298 | 6.1 | 7.0 | 0.00 | 0.00 | 0.00 | 39 | 1016.7 |
| 20260507003600 | 51 | 290 | 10.4 | 13.0 | 0.00 | 0.00 | 0.00 | 38 | 1016.9 |
| 20260507003055 | 51 | 352 | 6.1 | 7.0 | 0.00 | 0.00 | 0.00 | 38 | 1016.7 |
| 20260507002552 | 52 | 311 | 4.3 | 5.2 | 0.00 | 0.00 | 0.00 | 38 | 1016.8 |
| 20260507002047 | 52 | 289 | 7.0 | 8.7 | 0.00 | 0.00 | 0.00 | 37 | 1017.0 |
| 20260507001544 | 52 | 280 | 5.2 | 7.0 | 0.00 | 0.00 | 0.00 | 37 | 1016.7 |
| 20260507001042 | 52 | 350 | 5.2 | 7.8 | 0.00 | 0.00 | 0.00 | 38 | 1016.7 |
| 20260507000538 | 52 | 297 | 2.6 | 6.1 | 0.00 | 0.00 | 0.00 | 38 | 1016.7 |
| 20260507000033 | 52 | 15 | 2.6 | 3.5 | 0.00 | 0.00 | 0.00 | 38 | 1016.7 |
| 20260506235531 | 52 | 323 | 5.2 | 7.0 | 0.00 | 0.00 | 0.00 | 37 | 1016.6 |
| 20260506235027 | 52 | 306 | 7.0 | 9.6 | 0.00 | 0.00 | 0.00 | 37 | 1016.7 |
| 20260506234525 | 52 | 325 | 7.8 | 9.6 | 0.00 | 0.00 | 0.00 | 38 | 1016.7 |
| 20260506234021 | 52 | 323 | 7.8 | 8.7 | 0.00 | 0.00 | 0.00 | 37 | 1016.7 |
| 20260506233518 | 52 | 247 | 4.3 | 7.0 | 0.00 | 0.00 | 0.00 | 37 | 1016.4 |
| 20260506233015 | 53 | 322 | 9.6 | 11.3 | 0.00 | 0.00 | 0.00 | 37 | 1016.6 |
| 20260506232511 | 52 | 319 | 9.6 | 13.0 | 0.00 | 0.00 | 0.00 | 37 | 1016.6 |
| 20260506232006 | 51 | 297 | 7.8 | 8.7 | 0.00 | 0.00 | 0.00 | 38 | 1016.8 |
| 20260506231504 | 52 | 283 | 10.4 | 13.0 | 0.00 | 0.00 | 0.00 | 38 | 1016.4 |
| 20260506231002 | 53 | 324 | 11.3 | 13.0 | 0.00 | 0.00 | 0.00 | 37 | 1016.8 |
| 20260506230458 | 52 | 312 | 3.5 | 5.2 | 0.00 | 0.00 | 0.00 | 38 | 1016.7 |
| 20260506225954 | 52 | 342 | 3.5 | 5.2 | 0.00 | 0.00 | 0.00 | 38 | 1016.7 |
| 20260506225452 | 52 | 288 | 8.7 | 9.6 | 0.00 | 0.00 | 0.00 | 38 | 1016.7 |
| 20260506224948 | 52 | 301 | 9.6 | 13.9 | 0.00 | 0.00 | 0.00 | 38 | 1016.8 |
| 20260506224446 | 53 | 310 | 7.8 | 7.8 | 0.00 | 0.00 | 0.00 | 38 | 1016.8 |
| 20260506223942 | 52 | 338 | 7.0 | 8.7 | 0.00 | 0.00 | 0.00 | 38 | 1016.7 |
| 20260506223438 | 52 | 359 | 6.1 | 8.7 | 0.00 | 0.00 | 0.00 | 38 | 1016.8 |
| 20260506222935 | 53 | 279 | 7.8 | 11.3 | 0.00 | 0.00 | 0.00 | 36 | 1016.8 |
| 20260506222431 | 52 | 338 | 4.3 | 7.8 | 0.00 | 0.00 | 0.00 | 37 | 1016.9 |
| 20260506221928 | 53 | 348 | 13.0 | 15.6 | 0.00 | 0.00 | 0.00 | 37 | 1016.7 |
| 20260506221425 | 53 | 298 | 10.4 | 13.0 | 0.00 | 0.00 | 0.00 | 36 | 1017.0 |
| 20260506220924 | 53 | 258 | 7.0 | 9.6 | 0.00 | 0.00 | 0.00 | 35 | 1016.9 |
| 20260506220419 | 53 | 308 | 10.4 | 13.0 | 0.00 | 0.00 | 0.00 | 35 | 1016.8 |
| 20260506215916 | 53 | 295 | 5.2 | 7.0 | 0.00 | 0.00 | 0.00 | 36 | 1016.7 |
| 20260506215412 | 53 | 299 | 5.2 | 6.1 | 0.00 | 0.00 | 0.00 | 36 | 1016.7 |
| 20260506214908 | 53 | 321 | 10.4 | 12.2 | 0.00 | 0.00 | 0.00 | 36 | 1016.7 |
| 20260506214405 | 54 | 321 | 6.1 | 7.0 | 0.00 | 0.00 | 0.00 | 35 | 1016.7 |
| 20260506213902 | 53 | 314 | 4.3 | 7.0 | 0.00 | 0.00 | 0.00 | 37 | 1017.0 |
| 20260506213359 | 52 | 9 | 7.0 | 9.6 | 0.00 | 0.00 | 0.00 | 38 | 1016.8 |
| 20260506212852 | 53 | 309 | 9.6 | 11.3 | 0.00 | 0.00 | 0.00 | 36 | 1017.0 |
| 20260506212347 | 52 | 316 | 3.5 | 7.0 | 0.00 | 0.00 | 0.00 | 37 | 1016.8 |
| 20260506211842 | 52 | 296 | 7.8 | 8.7 | 0.00 | 0.00 | 0.00 | 38 | 1016.8 |
| 20260506211338 | 52 | 349 | 7.0 | 9.6 | 0.00 | 0.00 | 0.00 | 38 | 1016.9 |
| 20260506210836 | 52 | 248 | 8.7 | 11.3 | 0.00 | 0.00 | 0.00 | 38 | 1016.8 |
| 20260506210333 | 53 | 301 | 9.6 | 13.0 | 0.00 | 0.00 | 0.00 | 37 | 1016.8 |
| 20260506205830 | 53 | 280 | 7.0 | 9.6 | 0.00 | 0.00 | 0.00 | 36 | 1017.0 |
| 20260506205325 | 52 | 301 | 5.2 | 8.7 | 0.00 | 0.00 | 0.00 | 37 | 1017.0 |
| 20260506204822 | 52 | 314 | 8.7 | 8.7 | 0.00 | 0.00 | 0.00 | 39 | 1017.2 |
| 20260506204319 | 52 | 339 | 6.1 | 7.8 | 0.00 | 0.00 | 0.00 | 37 | 1017.2 |
| 20260506203817 | 51 | 352 | 3.5 | 6.1 | 0.00 | 0.00 | 0.00 | 38 | 1017.5 |
| 20260506203314 | 51 | 310 | 8.7 | 12.2 | 0.00 | 0.00 | 0.00 | 38 | 1017.2 |
| 20260506202811 | 52 | 343 | 11.3 | 13.0 | 0.00 | 0.00 | 0.00 | 37 | 1017.2 |
| 20260506202308 | 52 | 228 | 7.8 | 11.3 | 0.00 | 0.00 | 0.00 | 36 | 1017.2 |
| 20260506201804 | 52 | 306 | 10.4 | 12.2 | 0.00 | 0.00 | 0.00 | 38 | 1017.1 |
| 20260506201302 | 53 | 298 | 6.1 | 7.0 | 0.00 | 0.00 | 0.00 | 37 | 1017.2 |
| 20260506200759 | 53 | 8 | 8.7 | 14.8 | 0.00 | 0.00 | 0.00 | 36 | 1017.3 |
| 20260506200255 | 53 | 284 | 9.6 | 14.8 | 0.00 | 0.00 | 0.00 | 35 | 1017.3 |
| 20260506195751 | 53 | 310 | 5.2 | 7.0 | 0.00 | 0.00 | 0.00 | 37 | 1017.2 |
| 20260506195248 | 52 | 272 | 6.1 | 8.7 | 0.00 | 0.00 | 0.00 | 37 | 1017.0 |
| 20260506194745 | 52 | 298 | 8.7 | 13.0 | 0.00 | 0.00 | 0.00 | 37 | 1017.1 |
| 20260506194241 | 52 | 314 | 6.1 | 8.7 | 0.00 | 0.00 | 0.00 | 36 | 1017.1 |
| 20260506193739 | 52 | 332 | 8.7 | 12.2 | 0.00 | 0.00 | 0.00 | 37 | 1016.9 |
| 20260506193236 | 52 | 304 | 10.4 | 12.2 | 0.00 | 0.00 | 0.00 | 36 | 1017.1 |
| 20260506192732 | 53 | 317 | 10.4 | 12.2 | 0.00 | 0.00 | 0.00 | 36 | 1017.3 |
| 20260506192229 | 52 | 333 | 7.8 | 9.6 | 0.00 | 0.00 | 0.00 | 36 | 1017.1 |
| 20260506191726 | 53 | 304 | 12.2 | 15.6 | 0.00 | 0.00 | 0.00 | 35 | 1017.1 |
| 20260506191222 | 52 | 275 | 8.7 | 9.6 | 0.00 | 0.00 | 0.00 | 37 | 1017.2 |
| 20260506190719 | 52 | 301 | 13.0 | 18.2 | 0.00 | 0.00 | 0.00 | 37 | 1017.3 |
| 20260506190216 | 53 | 308 | 12.2 | 16.5 | 0.00 | 0.00 | 0.00 | 37 | 1017.0 |
| 20260506185713 | 53 | 270 | 4.3 | 6.1 | 0.00 | 0.00 | 0.00 | 37 | 1016.7 |
| 20260506185209 | 53 | 250 | 12.2 | 15.6 | 0.00 | 0.00 | 0.00 | 36 | 1017.1 |
| 20260506184707 | 52 | 325 | 7.8 | 8.7 | 0.00 | 0.00 | 0.00 | 37 | 1017.0 |
| 20260506184204 | 52 | 300 | 7.0 | 7.8 | 0.00 | 0.00 | 0.00 | 37 | 1016.8 |
| 20260506183701 | 51 | 306 | 8.7 | 12.2 | 0.00 | 0.00 | 0.00 | 37 | 1016.9 |
| 20260506183156 | 52 | 275 | 6.1 | 8.7 | 0.00 | 0.00 | 0.00 | 37 | 1017.0 |
| 20260506182654 | 52 | 324 | 14.8 | 18.2 | 0.00 | 0.00 | 0.00 | 37 | 1016.9 |
| 20260506182152 | 53 | 10 | 7.8 | 11.3 | 0.00 | 0.00 | 0.00 | 37 | 1016.9 |
| 20260506181649 | 52 | 305 | 5.2 | 7.0 | 0.00 | 0.00 | 0.00 | 37 | 1017.0 |
| 20260506181146 | 52 | 87 | 11.3 | 14.8 | 0.00 | 0.00 | 0.00 | 38 | 1017.0 |
| 20260506180643 | 53 | 277 | 13.0 | 19.1 | 0.00 | 0.00 | 0.00 | 36 | 1017.0 |
| 20260506180139 | 53 | 320 | 8.7 | 12.2 | 0.00 | 0.00 | 0.00 | 37 | 1016.8 |
| 20260506175636 | 52 | 342 | 10.4 | 13.9 | 0.00 | 0.00 | 0.00 | 37 | 1016.8 |
| 20260506175132 | 52 | 301 | 11.3 | 14.8 | 0.00 | 0.00 | 0.00 | 36 | 1017.2 |
| 20260506174631 | 52 | 321 | 12.2 | 15.6 | 0.00 | 0.00 | 0.00 | 37 | 1017.0 |
| 20260506174127 | 53 | 257 | 5.2 | 6.1 | 0.00 | 0.00 | 0.00 | 38 | 1016.9 |
| 20260506173625 | 53 | 8 | 3.5 | 3.5 | 0.00 | 0.00 | 0.00 | 37 | 1017.1 |
| 20260506173121 | 51 | 308 | 13.9 | 15.6 | 0.00 | 0.00 | 0.00 | 37 | 1017.1 |
| 20260506172619 | 51 | 331 | 10.4 | 12.2 | 0.00 | 0.00 | 0.00 | 38 | 1017.2 |
| 20260506172115 | 52 | 5 | 11.3 | 14.8 | 0.00 | 0.00 | 0.00 | 38 | 1017.2 |
| 20260506171613 | 51 | 336 | 8.7 | 11.3 | 0.00 | 0.00 | 0.00 | 37 | 1017.1 |
| 20260506171111 | 51 | 290 | 8.7 | 11.3 | 0.00 | 0.00 | 0.00 | 38 | 1017.1 |
| 20260506170608 | 52 | 312 | 10.4 | 16.5 | 0.00 | 0.00 | 0.00 | 38 | 1017.3 |
| 20260506170105 | 52 | 320 | 8.7 | 11.3 | 0.00 | 0.00 | 0.00 | 38 | 1017.2 |
| 20260506165603 | 51 | 276 | 3.5 | 5.2 | 0.00 | 0.00 | 0.00 | 38 | 1017.2 |
| 20260506165059 | 51 | 332 | 11.3 | 13.0 | 0.00 | 0.00 | 0.00 | 39 | 1017.0 |
| 20260506164556 | 51 | 304 | 8.7 | 12.2 | 0.00 | 0.00 | 0.00 | 39 | 1017.2 |
| 20260506164053 | 51 | 323 | 11.3 | 13.0 | 0.00 | 0.00 | 0.00 | 39 | 1017.2 |
| 20260506163549 | 51 | 333 | 9.6 | 13.0 | 0.00 | 0.00 | 0.00 | 38 | 1017.2 |
| 20260506163045 | 51 | 301 | 14.8 | 18.2 | 0.00 | 0.00 | 0.00 | 39 | 1017.4 |
| 20260506162542 | 50 | 344 | 10.4 | 13.9 | 0.00 | 0.00 | 0.00 | 39 | 1017.3 |
| 20260506162039 | 51 | 340 | 14.8 | 18.2 | 0.00 | 0.00 | 0.00 | 39 | 1017.3 |
| 20260506161536 | 50 | 200 | 5.2 | 7.8 | 0.00 | 0.00 | 0.00 | 39 | 1017.2 |
| 20260506161033 | 50 | 324 | 10.4 | 14.8 | 0.00 | 0.00 | 0.00 | 39 | 1017.4 |
| 20260506160531 | 50 | 299 | 10.4 | 13.0 | 0.00 | 0.00 | 0.00 | 39 | 1017.4 |
| 20260506160028 | 50 | 327 | 8.7 | 11.3 | 0.00 | 0.00 | 0.00 | 40 | 1017.2 |
| 20260506155526 | 50 | 312 | 9.6 | 12.2 | 0.00 | 0.00 | 0.00 | 40 | 1017.3 |
| 20260506153657 | 49 | 290 | 13.0 | 16.5 | 0.00 | 0.00 | 0.00 | 40 | 1017.3 |
| 20260506153154 | 49 | 320 | 9.6 | 13.0 | 0.00 | 0.00 | 0.00 | 41 | 1017.2 |
| 20260506152651 | 49 | 328 | 13.9 | 15.6 | 0.00 | 0.00 | 0.00 | 41 | 1017.3 |
| 20260506152149 | 50 | 318 | 7.8 | 9.6 | 0.00 | 0.00 | 0.00 | 41 | 1017.1 |
| 20260506151648 | 49 | 351 | 7.8 | 8.7 | 0.00 | 0.00 | 0.00 | 42 | 1017.1 |
| 20260506151144 | 48 | 356 | 7.0 | 7.8 | 0.00 | 0.00 | 0.00 | 43 | 1017.1 |
| 20260506150641 | 49 | 315 | 11.3 | 14.8 | 0.00 | 0.00 | 0.00 | 42 | 1017.0 |
| 20260506150138 | 49 | 319 | 11.3 | 13.0 | 0.00 | 0.00 | 0.00 | 43 | 1017.0 |
| 20260506145635 | 48 | 35 | 7.8 | 8.7 | 0.00 | 0.00 | 0.00 | 44 | 1017.1 |
| 20260506145131 | 48 | 332 | 8.7 | 9.6 | 0.00 | 0.00 | 0.00 | 45 | 1017.1 |
| 20260506144629 | 47 | 325 | 9.6 | 11.3 | 0.00 | 0.00 | 0.00 | 46 | 1016.9 |
| 20260506144125 | 48 | 316 | 8.7 | 12.2 | 0.00 | 0.00 | 0.00 | 45 | 1016.8 |
| 20260506143623 | 48 | 326 | 12.2 | 15.6 | 0.00 | 0.00 | 0.00 | 45 | 1016.9 |
| 20260506143121 | 48 | 5 | 4.3 | 6.1 | 0.00 | 0.00 | 0.00 | 46 | 1016.9 |
| 20260506142619 | 48 | 327 | 6.1 | 8.7 | 0.00 | 0.00 | 0.00 | 45 | 1017.1 |
| 20260506142117 | 48 | 316 | 8.7 | 9.6 | 0.00 | 0.00 | 0.00 | 45 | 1016.9 |
| 20260506141614 | 48 | 282 | 2.6 | 5.2 | 0.00 | 0.00 | 0.00 | 46 | 1017.2 |
| 20260506141112 | 48 | 316 | 3.5 | 5.2 | 0.00 | 0.00 | 0.00 | 48 | 1017.0 |
| 20260506140610 | 47 | 315 | 5.2 | 7.0 | 0.00 | 0.00 | 0.00 | 49 | 1016.9 |
| 20260506140107 | 46 | 318 | 7.0 | 7.8 | 0.00 | 0.00 | 0.00 | 49 | 1017.1 |
| 20260506135603 | 46 | 264 | 4.3 | 7.0 | 0.00 | 0.00 | 0.00 | 51 | 1017.0 |
| 20260506135059 | 46 | 299 | 8.7 | 9.6 | 0.00 | 0.00 | 0.00 | 51 | 1017.1 |
| 20260506134556 | 46 | 331 | 3.5 | 3.5 | 0.00 | 0.00 | 0.00 | 52 | 1017.1 |
| 20260506134052 | 46 | 331 | 3.5 | 6.1 | 0.00 | 0.00 | 0.00 | 53 | 1017.0 |
| 20260506133549 | 45 | 293 | 3.5 | 5.2 | 0.00 | 0.00 | 0.00 | 53 | 1016.7 |
| 20260506133046 | 45 | 281 | 9.6 | 12.2 | 0.00 | 0.00 | 0.00 | 53 | 1016.8 |
| 20260506132544 | 45 | 307 | 6.1 | 7.0 | 0.00 | 0.00 | 0.00 | 55 | 1016.7 |
| 20260506132041 | 45 | 308 | 7.8 | 8.7 | 0.00 | 0.00 | 0.00 | 54 | 1016.7 |
| 20260506131538 | 46 | 339 | 2.6 | 3.5 | 0.00 | 0.00 | 0.00 | 54 | 1016.7 |
| 20260506131034 | 45 | 344 | 2.6 | 3.5 | 0.00 | 0.00 | 0.00 | 54 | 1016.7 |
| 20260506130531 | 45 | 310 | 7.0 | 8.7 | 0.00 | 0.00 | 0.00 | 53 | 1016.5 |
| 20260506130029 | 45 | 317 | 5.2 | 7.8 | 0.00 | 0.00 | 0.00 | 54 | 1016.3 |
| 20260506125527 | 45 | 347 | 1.7 | 2.6 | 0.00 | 0.00 | 0.00 | 55 | 1016.5 |
| 20260506125024 | 44 | 297 | 6.1 | 7.0 | 0.00 | 0.00 | 0.00 | 55 | 1016.3 |
| 20260506124522 | 44 | 319 | 6.1 | 7.0 | 0.00 | 0.00 | 0.00 | 56 | 1016.4 |
| 20260506124020 | 44 | 351 | 4.3 | 5.2 | 0.00 | 0.00 | 0.00 | 56 | 1016.3 |
| 20260506123517 | 44 | 298 | 5.2 | 7.0 | 0.00 | 0.00 | 0.00 | 56 | 1016.3 |
| 20260506123015 | 43 | 351 | 3.5 | 5.2 | 0.00 | 0.00 | 0.00 | 58 | 1016.2 |
| 20260506122512 | 43 | 279 | 4.3 | 6.1 | 0.00 | 0.00 | 0.00 | 58 | 1016.1 |
| 20260506122010 | 42 | 334 | 5.2 | 7.0 | 0.00 | 0.00 | 0.00 | 59 | 1016.1 |
| 20260506121507 | 42 | 337 | 5.2 | 6.1 | 0.00 | 0.00 | 0.00 | 61 | 1016.0 |
| 20260506121003 | 42 | 355 | 2.6 | 3.5 | 0.00 | 0.00 | 0.00 | 63 | 1015.9 |
| 20260506120501 | 41 | 337 | 2.6 | 2.6 | 0.00 | 0.00 | 0.00 | 63 | 1015.9 |
| 20260506115958 | 41 | 1 | 5.2 | 6.1 | 0.00 | 0.00 | 0.00 | 63 | 1015.8 |
| 20260506115456 | 41 | 321 | 4.3 | 5.2 | 0.00 | 0.00 | 0.00 | 63 | 1015.5 |
| 20260506114954 | 41 | 349 | 5.2 | 6.1 | 0.00 | 0.00 | 0.00 | 64 | 1015.5 |
| 20260506114451 | 41 | 320 | 3.5 | 3.5 | 0.00 | 0.00 | 0.00 | 64 | 1015.2 |
| 20260506113950 | 40 | 357 | 3.5 | 3.5 | 0.00 | 0.00 | 0.00 | 65 | 1015.0 |
| 20260506113447 | 40 | 326 | 2.6 | 2.6 | 0.00 | 0.00 | 0.00 | 66 | 1015.1 |
| 20260506112943 | 40 | 318 | 1.7 | 2.6 | 0.00 | 0.00 | 0.00 | 66 | 1015.0 |
| 20260506112441 | 39 | 20 | 4.3 | 5.2 | 0.00 | 0.00 | 0.00 | 67 | 1014.9 |
| 20260506111938 | 39 | 336 | 2.6 | 2.6 | 0.00 | 0.00 | 0.00 | 68 | 1014.9 |
| 20260506111437 | 39 | 14 | 1.7 | 2.6 | 0.00 | 0.00 | 0.00 | 69 | 1015.0 |
| 20260506110933 | 38 | 331 | 2.6 | 3.5 | 0.00 | 0.00 | 0.00 | 71 | 1015.0 |
| 20260506110431 | 38 | 339 | 1.7 | 1.7 | 0.00 | 0.00 | 0.00 | 73 | 1014.9 |
| 20260506105927 | 38 | 328 | 1.7 | 1.7 | 0.00 | 0.00 | 0.00 | 74 | 1014.9 |